DLH205 MSLP-MMMX

Flight info

Callsign DLH205
Flight time 1h 35m
Altitude 40000
Route OLISU4A OLISU DCT KAPAN DCT XOSVO UT157 LARLO LARLO3B
Aircraft A388/J-SADE2E3FGHIJ3J4J5M1RWXY/LB1D1

Departure

Time 2026-05-04 01:20
Airport El Salvador International Airport Saint Óscar Arnulfo Romero y Galdámez (MSLP)

Arrival

Time 2026-05-04 02:56
Airport Mexico City Benito Juárez International Airport (MMMX)
Time Latitude Longitude Altitude Speed Heading
2026-05-04 00:32 13.44552 -89.05282 117 ft 0 kts 340°
2026-05-04 00:50 13.44546 -89.05279 117 ft 2 kts 340°
2026-05-04 00:51 13.44533 -89.05274 117 ft 1 kts 340°
2026-05-04 00:51 13.44523 -89.05271 117 ft 2 kts 332°
2026-05-04 00:51 13.44510 -89.05261 117 ft 2 kts 303°
2026-05-04 00:51 13.44503 -89.05247 117 ft 2 kts 282°
2026-05-04 00:52 13.44501 -89.05231 117 ft 2 kts 259°
2026-05-04 00:52 13.44502 -89.05221 117 ft 1 kts 249°
2026-05-04 00:52 13.44503 -89.05219 117 ft 0 kts 249°
2026-05-04 00:57 13.44499 -89.05228 117 ft 4 kts 249°
2026-05-04 00:57 13.44483 -89.05272 117 ft 8 kts 249°
2026-05-04 00:57 13.44457 -89.05340 117 ft 12 kts 242°
2026-05-04 00:58 13.44382 -89.05391 117 ft 15 kts 206°
2026-05-04 00:58 13.44319 -89.05475 117 ft 16 kts 249°
2026-05-04 00:58 13.44280 -89.05585 117 ft 17 kts 250°
2026-05-04 00:58 13.44241 -89.05696 117 ft 17 kts 250°
2026-05-04 00:59 13.44202 -89.05806 117 ft 16 kts 250°
2026-05-04 00:59 13.44167 -89.05906 117 ft 14 kts 250°
2026-05-04 00:59 13.44135 -89.05995 117 ft 13 kts 250°
2026-05-04 00:59 13.44106 -89.06078 117 ft 13 kts 250°
2026-05-04 01:00 13.44075 -89.06165 117 ft 13 kts 250°
2026-05-04 01:00 13.44042 -89.06258 117 ft 14 kts 250°
2026-05-04 01:00 13.44007 -89.06356 117 ft 14 kts 250°
2026-05-04 01:00 13.43974 -89.06446 117 ft 13 kts 250°
2026-05-04 01:01 13.43946 -89.06524 117 ft 11 kts 250°
2026-05-04 01:01 13.43923 -89.06590 117 ft 9 kts 250°
2026-05-04 01:01 13.43902 -89.06647 117 ft 8 kts 250°
2026-05-04 01:01 13.43882 -89.06702 117 ft 8 kts 250°
2026-05-04 01:02 13.43862 -89.06757 117 ft 8 kts 250°
2026-05-04 01:02 13.43843 -89.06811 117 ft 8 kts 250°
2026-05-04 01:02 13.43824 -89.06864 117 ft 8 kts 250°
2026-05-04 01:02 13.43805 -89.06917 117 ft 8 kts 250°
2026-05-04 01:03 13.43784 -89.06963 117 ft 6 kts 237°
2026-05-04 01:03 13.43766 -89.06983 117 ft 2 kts 218°
2026-05-04 01:03 13.43763 -89.06985 117 ft 0 kts 216°
2026-05-04 01:17 13.43751 -89.06992 117 ft 5 kts 205°
2026-05-04 01:17 13.43695 -89.06993 117 ft 10 kts 166°
2026-05-04 01:17 13.43634 -89.06952 117 ft 11 kts 126°
2026-05-04 01:18 13.43626 -89.06886 117 ft 7 kts 73°
2026-05-04 01:18 13.43636 -89.06858 117 ft 1 kts 71°
2026-05-04 01:18 13.43636 -89.06857 117 ft 0 kts 71°
2026-05-04 01:19 13.43718 -89.06626 117 ft 69 kts 69°
2026-05-04 01:19 13.43968 -89.05931 117 ft 139 kts 70°
2026-05-04 01:20 13.44375 -89.04792 279 ft 194 kts 68°
2026-05-04 01:20 13.44867 -89.03441 989 ft 213 kts 69°
2026-05-04 01:20 13.45364 -89.01984 1650 ft 219 kts 69°
2026-05-04 01:20 13.45884 -89.00506 2276 ft 224 kts 70°
2026-05-04 01:21 13.46365 -88.99006 2886 ft 224 kts 81°
2026-05-04 01:21 13.46100 -88.97481 3480 ft 225 kts 123°
2026-05-04 01:21 13.44872 -88.96532 4132 ft 238 kts 165°
2026-05-04 01:21 13.43155 -88.96624 4801 ft 268 kts 203°
2026-05-04 01:22 13.41707 -88.97823 5576 ft 279 kts 238°
2026-05-04 01:22 13.41169 -88.99718 6517 ft 284 kts 270°
2026-05-04 01:22 13.41410 -89.01730 7350 ft 290 kts 284°
2026-05-04 01:22 13.41961 -89.03728 8117 ft 302 kts 288°
2026-05-04 01:23 13.42593 -89.05884 8840 ft 334 kts 288°
2026-05-04 01:23 13.43561 -89.08148 9531 ft 366 kts 300°
2026-05-04 01:23 13.45037 -89.10402 10270 ft 400 kts 310°
2026-05-04 01:23 13.46861 -89.12644 10949 ft 418 kts 311°
2026-05-04 01:24 13.48710 -89.14990 11588 ft 424 kts 310°
2026-05-04 01:24 13.50569 -89.17335 12292 ft 428 kts 311°
2026-05-04 01:24 13.52443 -89.19702 13047 ft 431 kts 311°
2026-05-04 01:24 13.54333 -89.22089 13800 ft 435 kts 311°
2026-05-04 01:25 13.56240 -89.24497 14552 ft 439 kts 311°
2026-05-04 01:25 13.58164 -89.26932 15305 ft 444 kts 311°
2026-05-04 01:25 13.60106 -89.29388 16057 ft 448 kts 311°
2026-05-04 01:25 13.62081 -89.31885 16815 ft 452 kts 311°
2026-05-04 01:26 13.64058 -89.34387 17567 ft 456 kts 310°
2026-05-04 01:26 13.66055 -89.36915 18320 ft 461 kts 311°
2026-05-04 01:26 13.68072 -89.39468 19073 ft 465 kts 310°
2026-05-04 01:26 13.70110 -89.42048 19827 ft 469 kts 310°
2026-05-04 01:27 13.72163 -89.44651 20581 ft 474 kts 310°
2026-05-04 01:27 13.74235 -89.47276 21334 ft 478 kts 310°
2026-05-04 01:27 13.76349 -89.49954 22095 ft 483 kts 310°
2026-05-04 01:27 13.78457 -89.52628 22849 ft 487 kts 310°
2026-05-04 01:28 13.80586 -89.55326 23545 ft 492 kts 310°
2026-05-04 01:28 13.82741 -89.58061 24070 ft 496 kts 310°
2026-05-04 01:28 13.84903 -89.60808 24700 ft 499 kts 310°
2026-05-04 01:28 13.87086 -89.63578 25330 ft 502 kts 310°
2026-05-04 01:29 13.89275 -89.66359 25957 ft 504 kts 310°
2026-05-04 01:29 13.91498 -89.69184 26482 ft 508 kts 310°
2026-05-04 01:29 13.93739 -89.72030 26977 ft 522 kts 310°
2026-05-04 01:29 13.96023 -89.74935 27440 ft 526 kts 309°
2026-05-04 01:30 13.98316 -89.77851 27888 ft 526 kts 309°
2026-05-04 01:30 14.00602 -89.80760 28330 ft 524 kts 309°
2026-05-04 01:30 14.02912 -89.83700 28725 ft 533 kts 309°
2026-05-04 01:30 14.05012 -89.86833 29073 ft 534 kts 301°
2026-05-04 01:31 14.06829 -89.90171 29460 ft 533 kts 299°
2026-05-04 01:31 14.08526 -89.93537 29828 ft 531 kts 298°
2026-05-04 01:31 14.10205 -89.96908 30182 ft 532 kts 298°
2026-05-04 01:31 14.11895 -90.00295 30512 ft 535 kts 297°
2026-05-04 01:32 14.13584 -90.03686 30834 ft 535 kts 297°
2026-05-04 01:32 14.15273 -90.07078 31155 ft 535 kts 297°
2026-05-04 01:32 14.16960 -90.10467 31475 ft 534 kts 297°
2026-05-04 01:32 14.18658 -90.13879 31797 ft 534 kts 297°
2026-05-04 01:33 14.20339 -90.17260 32095 ft 533 kts 297°
2026-05-04 01:33 14.22022 -90.20645 32337 ft 533 kts 297°
2026-05-04 01:33 14.23702 -90.24027 32582 ft 533 kts 297°
2026-05-04 01:33 14.25380 -90.27407 32827 ft 532 kts 297°
2026-05-04 01:34 14.27058 -90.30786 33073 ft 531 kts 296°
2026-05-04 01:34 14.28731 -90.34159 33318 ft 531 kts 296°
2026-05-04 01:34 14.30416 -90.37554 33565 ft 530 kts 296°
2026-05-04 01:34 14.32084 -90.40918 33810 ft 530 kts 296°
2026-05-04 01:35 14.33749 -90.44279 34054 ft 529 kts 296°
2026-05-04 01:35 14.35412 -90.47637 34299 ft 528 kts 296°
2026-05-04 01:35 14.37069 -90.50985 34544 ft 527 kts 296°
2026-05-04 01:35 14.38725 -90.54330 34788 ft 526 kts 296°
2026-05-04 01:36 14.40375 -90.57665 35032 ft 524 kts 296°
2026-05-04 01:36 14.42034 -90.61021 35278 ft 523 kts 296°
2026-05-04 01:36 14.43676 -90.64342 35521 ft 522 kts 296°
2026-05-04 01:36 14.45314 -90.67658 35767 ft 521 kts 296°
2026-05-04 01:37 14.46947 -90.70965 36012 ft 520 kts 296°
2026-05-04 01:37 14.48577 -90.74267 36257 ft 519 kts 296°
2026-05-04 01:37 14.50204 -90.77563 36503 ft 518 kts 296°
2026-05-04 01:37 14.51827 -90.80851 36748 ft 517 kts 296°
2026-05-04 01:38 14.53459 -90.84164 36995 ft 516 kts 296°
2026-05-04 01:38 14.55078 -90.87448 37240 ft 516 kts 296°
2026-05-04 01:38 14.56695 -90.90731 37485 ft 516 kts 296°
2026-05-04 01:38 14.58310 -90.94011 37730 ft 515 kts 296°
2026-05-04 01:39 14.59923 -90.97287 37974 ft 514 kts 296°
2026-05-04 01:39 14.61532 -91.00559 38218 ft 514 kts 296°
2026-05-04 01:39 14.63141 -91.03828 38462 ft 513 kts 296°
2026-05-04 01:39 14.64759 -91.07123 38708 ft 513 kts 296°
2026-05-04 01:40 14.66362 -91.10385 38951 ft 512 kts 296°
2026-05-04 01:40 14.67965 -91.13649 39123 ft 513 kts 296°
2026-05-04 01:40 14.69570 -91.16919 39189 ft 513 kts 296°
2026-05-04 01:41 14.72781 -91.23463 39335 ft 513 kts 296°
2026-05-04 01:41 14.75997 -91.30022 39481 ft 512 kts 296°
2026-05-04 01:42 14.79194 -91.36552 39626 ft 512 kts 296°
2026-05-04 01:42 14.82388 -91.43080 39771 ft 511 kts 296°
2026-05-04 01:43 14.85578 -91.49606 39915 ft 511 kts 296°
2026-05-04 01:43 14.88783 -91.56167 39969 ft 515 kts 295°
2026-05-04 01:44 14.92010 -91.62780 39983 ft 520 kts 295°
2026-05-04 01:44 14.95250 -91.69424 40001 ft 520 kts 295°
2026-05-04 01:45 14.98499 -91.76093 40017 ft 520 kts 295°
2026-05-04 01:45 15.03352 -91.86062 40042 ft 520 kts 295°
2026-05-04 01:46 15.06582 -91.92711 40049 ft 520 kts 295°
2026-05-04 01:46 15.09823 -91.99384 40027 ft 520 kts 295°
2026-05-04 01:47 15.13054 -92.06042 40000 ft 520 kts 295°
2026-05-04 01:47 15.16282 -92.12705 39973 ft 521 kts 295°
2026-05-04 01:48 15.19510 -92.19368 39952 ft 520 kts 295°
2026-05-04 01:48 15.22745 -92.26053 39952 ft 520 kts 295°
2026-05-04 01:49 15.25965 -92.32715 39952 ft 520 kts 295°
2026-05-04 01:49 15.29186 -92.39385 39952 ft 520 kts 295°
2026-05-04 01:50 15.32416 -92.46080 39952 ft 520 kts 295°
2026-05-04 01:50 15.35691 -92.52873 39952 ft 520 kts 295°
2026-05-04 01:51 15.38927 -92.59592 39952 ft 521 kts 295°
2026-05-04 01:51 15.42144 -92.66277 39954 ft 521 kts 294°
2026-05-04 01:52 15.45361 -92.72969 39955 ft 521 kts 294°
2026-05-04 01:52 15.48572 -92.79656 39955 ft 521 kts 294°
2026-05-04 01:53 15.51795 -92.86372 39955 ft 521 kts 294°
2026-05-04 01:53 15.55004 -92.93066 39966 ft 521 kts 294°
2026-05-04 01:54 15.58213 -92.99767 39984 ft 521 kts 294°
2026-05-04 01:54 15.61432 -93.06493 40003 ft 522 kts 294°
2026-05-04 01:55 15.64638 -93.13200 40022 ft 522 kts 294°
2026-05-04 01:55 15.67842 -93.19910 40033 ft 522 kts 294°
2026-05-04 01:56 15.71046 -93.26625 40037 ft 522 kts 294°
2026-05-04 01:56 15.74260 -93.33369 40036 ft 522 kts 294°
2026-05-04 01:57 15.77463 -93.40095 40036 ft 522 kts 294°
2026-05-04 01:57 15.80665 -93.46825 40036 ft 523 kts 294°
2026-05-04 01:58 15.83876 -93.53581 40036 ft 523 kts 294°
2026-05-04 01:58 15.87075 -93.60318 40036 ft 523 kts 294°
2026-05-04 01:59 15.90272 -93.67057 40039 ft 523 kts 294°
2026-05-04 01:59 15.93466 -93.73798 40039 ft 523 kts 294°
2026-05-04 02:00 15.96671 -93.80567 40039 ft 523 kts 294°
2026-05-04 02:00 15.99863 -93.87315 40037 ft 523 kts 294°
2026-05-04 02:01 16.03053 -93.94066 40029 ft 523 kts 294°
2026-05-04 02:01 16.06252 -94.00845 40022 ft 523 kts 294°
2026-05-04 02:02 16.09438 -94.07600 40014 ft 523 kts 294°
2026-05-04 02:02 16.12621 -94.14356 40007 ft 523 kts 294°
2026-05-04 02:03 16.15799 -94.21108 40007 ft 523 kts 294°
2026-05-04 02:03 16.18986 -94.27885 40009 ft 522 kts 294°
2026-05-04 02:04 16.22157 -94.34638 40013 ft 522 kts 294°
2026-05-04 02:04 16.25324 -94.41385 40016 ft 521 kts 294°
2026-05-04 02:05 16.28497 -94.48156 40020 ft 521 kts 294°
2026-05-04 02:05 16.31656 -94.54899 40023 ft 521 kts 294°
2026-05-04 02:06 16.34808 -94.61640 40025 ft 520 kts 294°
2026-05-04 02:06 16.37961 -94.68382 40029 ft 520 kts 294°
2026-05-04 02:07 16.41115 -94.75140 40028 ft 519 kts 294°
2026-05-04 02:07 16.44254 -94.81868 40028 ft 519 kts 294°
2026-05-04 02:08 16.47386 -94.88592 40033 ft 519 kts 294°
2026-05-04 02:08 16.50529 -94.95342 40038 ft 518 kts 293°
2026-05-04 02:09 16.53662 -95.02080 40043 ft 518 kts 294°
2026-05-04 02:09 16.56782 -95.08795 40075 ft 517 kts 294°
2026-05-04 02:10 16.59899 -95.15511 40073 ft 517 kts 293°
2026-05-04 02:10 16.63023 -95.22252 40073 ft 517 kts 293°
2026-05-04 02:11 16.66135 -95.28971 40078 ft 517 kts 293°
2026-05-04 02:11 16.69242 -95.35685 40092 ft 517 kts 293°
2026-05-04 02:12 16.71967 -95.41582 40104 ft 517 kts 293°
2026-05-04 02:12 16.75070 -95.48300 40119 ft 517 kts 293°
2026-05-04 02:13 16.77017 -95.52522 40137 ft 517 kts 293°
2026-05-04 02:13 16.80120 -95.59251 40141 ft 518 kts 293°
2026-05-04 02:14 16.83235 -95.66016 40146 ft 518 kts 293°
2026-05-04 02:14 16.86337 -95.72759 40149 ft 518 kts 293°
2026-05-04 02:15 16.89436 -95.79500 40150 ft 517 kts 293°
2026-05-04 02:15 16.92540 -95.86263 40149 ft 517 kts 293°
2026-05-04 02:16 16.95631 -95.93003 40149 ft 517 kts 293°
2026-05-04 02:16 16.98720 -95.99745 40149 ft 517 kts 293°
2026-05-04 02:17 17.01803 -96.06480 40164 ft 516 kts 293°
2026-05-04 02:17 17.04891 -96.13236 40187 ft 516 kts 293°
2026-05-04 02:18 17.07967 -96.19971 40209 ft 516 kts 293°
2026-05-04 02:18 17.11038 -96.26703 40226 ft 516 kts 293°
2026-05-04 02:19 17.14120 -96.33466 40226 ft 516 kts 293°
2026-05-04 02:19 17.17902 -96.39789 40238 ft 520 kts 306°
2026-05-04 02:20 17.22524 -96.45573 40226 ft 522 kts 307°
2026-05-04 02:20 17.27175 -96.51346 40225 ft 521 kts 307°
2026-05-04 02:21 17.31840 -96.57138 40219 ft 521 kts 307°
2026-05-04 02:21 17.36488 -96.62913 40208 ft 521 kts 307°
2026-05-04 02:22 17.41134 -96.68693 40204 ft 521 kts 307°
2026-05-04 02:22 17.45794 -96.74494 40194 ft 522 kts 307°
2026-05-04 02:23 17.50436 -96.80278 40194 ft 522 kts 307°
2026-05-04 02:23 17.55075 -96.86064 40193 ft 521 kts 307°
2026-05-04 02:24 17.59711 -96.91850 40193 ft 521 kts 307°
2026-05-04 02:24 17.64364 -96.97663 40193 ft 521 kts 307°
2026-05-04 02:25 17.69000 -97.03460 40195 ft 521 kts 307°
2026-05-04 02:25 17.73634 -97.09260 40197 ft 521 kts 307°
2026-05-04 02:26 17.78288 -97.15089 40199 ft 521 kts 307°
2026-05-04 02:26 17.82913 -97.20888 40201 ft 521 kts 307°
2026-05-04 02:27 17.87538 -97.26693 40202 ft 521 kts 307°
2026-05-04 02:27 17.92161 -97.32497 40201 ft 521 kts 307°
2026-05-04 02:28 17.96800 -97.38328 40205 ft 521 kts 307°
2026-05-04 02:28 18.01419 -97.44139 40211 ft 520 kts 307°
2026-05-04 02:29 18.06024 -97.49940 40214 ft 520 kts 307°
2026-05-04 02:29 18.10651 -97.55772 40217 ft 520 kts 307°
2026-05-04 02:30 18.15255 -97.61581 40214 ft 520 kts 307°
2026-05-04 02:30 18.19872 -97.67412 39883 ft 526 kts 307°
2026-05-04 02:31 18.22204 -97.70359 39441 ft 528 kts 307°
2026-05-04 02:31 18.24539 -97.73312 38996 ft 529 kts 307°
2026-05-04 02:31 18.26898 -97.76296 38504 ft 530 kts 307°
2026-05-04 02:31 18.29238 -97.79259 38011 ft 529 kts 308°
2026-05-04 02:32 18.31569 -97.82210 37516 ft 526 kts 308°
2026-05-04 02:32 18.33890 -97.85149 37021 ft 524 kts 308°
2026-05-04 02:32 18.36201 -97.88078 36525 ft 522 kts 308°
2026-05-04 02:32 18.38503 -97.90997 35997 ft 521 kts 309°
2026-05-04 02:33 18.40798 -97.93908 35447 ft 515 kts 309°
2026-05-04 02:33 18.43048 -97.96762 34870 ft 498 kts 309°
2026-05-04 02:33 18.45217 -97.99516 34343 ft 485 kts 310°
2026-05-04 02:33 18.47333 -98.02204 33826 ft 474 kts 310°
2026-05-04 02:34 18.49406 -98.04834 33310 ft 465 kts 310°
2026-05-04 02:34 18.51438 -98.07414 32798 ft 456 kts 310°
2026-05-04 02:34 18.53429 -98.09946 32288 ft 448 kts 310°
2026-05-04 02:34 18.55385 -98.12435 31776 ft 440 kts 310°
2026-05-04 02:35 18.57321 -98.14897 31263 ft 432 kts 310°
2026-05-04 02:35 18.59211 -98.17304 30754 ft 425 kts 310°
2026-05-04 02:35 18.61070 -98.19672 30247 ft 419 kts 310°
2026-05-04 02:35 18.62900 -98.22003 29739 ft 412 kts 310°
2026-05-04 02:36 18.64704 -98.24303 29230 ft 406 kts 310°
2026-05-04 02:36 18.66479 -98.26568 28724 ft 400 kts 310°
2026-05-04 02:36 18.68227 -98.28798 28217 ft 394 kts 310°
2026-05-04 02:36 18.69951 -98.31022 27700 ft 388 kts 308°
2026-05-04 02:37 18.71219 -98.33489 27176 ft 385 kts 291°
2026-05-04 02:37 18.71926 -98.36175 26702 ft 380 kts 285°
2026-05-04 02:37 18.72482 -98.38870 26197 ft 376 kts 284°
2026-05-04 02:37 18.73001 -98.41539 25705 ft 371 kts 284°
2026-05-04 02:38 18.73501 -98.44174 25248 ft 366 kts 284°
2026-05-04 02:38 18.73990 -98.46771 24788 ft 360 kts 284°
2026-05-04 02:38 18.74477 -98.49353 24324 ft 356 kts 284°
2026-05-04 02:38 18.74951 -98.51882 23865 ft 351 kts 284°
2026-05-04 02:39 18.75422 -98.54380 23406 ft 347 kts 284°
2026-05-04 02:39 18.75889 -98.56856 22951 ft 345 kts 284°
2026-05-04 02:39 18.76350 -98.59317 22499 ft 343 kts 284°
2026-05-04 02:39 18.76810 -98.61767 22046 ft 341 kts 284°
2026-05-04 02:40 18.77266 -98.64205 21608 ft 337 kts 284°
2026-05-04 02:40 18.77718 -98.66625 21223 ft 331 kts 283°
2026-05-04 02:40 18.78159 -98.68986 20835 ft 326 kts 283°
2026-05-04 02:40 18.78591 -98.71300 20451 ft 320 kts 283°
2026-05-04 02:41 18.79016 -98.73578 20066 ft 315 kts 283°
2026-05-04 02:41 18.79337 -98.75300 19773 ft 311 kts 283°
2026-05-04 02:41 18.79749 -98.77508 19470 ft 304 kts 283°
2026-05-04 02:41 18.80151 -98.79671 19208 ft 300 kts 283°
2026-05-04 02:42 18.80703 -98.81798 18958 ft 299 kts 291°
2026-05-04 02:42 18.81402 -98.83854 18715 ft 298 kts 291°
2026-05-04 02:42 18.82084 -98.85910 18467 ft 298 kts 290°
2026-05-04 02:42 18.82759 -98.87962 18215 ft 296 kts 290°
2026-05-04 02:43 18.83435 -98.90008 17961 ft 296 kts 290°
2026-05-04 02:43 18.84106 -98.92050 17711 ft 295 kts 290°
2026-05-04 02:43 18.84778 -98.94089 17458 ft 295 kts 290°
2026-05-04 02:43 18.85454 -98.96142 17209 ft 295 kts 290°
2026-05-04 02:44 18.86122 -98.98174 16955 ft 295 kts 290°
2026-05-04 02:44 18.86789 -99.00202 16838 ft 292 kts 290°
2026-05-04 02:44 18.87453 -99.02224 16824 ft 293 kts 290°
2026-05-04 02:44 18.88117 -99.04249 16794 ft 293 kts 290°
2026-05-04 02:45 18.88984 -99.06163 16748 ft 291 kts 311°
2026-05-04 02:45 18.89989 -99.07113 16595 ft 293 kts 330°
2026-05-04 02:45 18.92602 -99.07639 16155 ft 294 kts
2026-05-04 02:45 18.94174 -99.07299 15904 ft 294 kts 13°
2026-05-04 02:46 18.96143 -99.06783 15533 ft 292 kts 13°
2026-05-04 02:46 18.98086 -99.06276 15211 ft 286 kts 13°
2026-05-04 02:46 18.99981 -99.05782 14966 ft 276 kts 13°
2026-05-04 02:46 19.01790 -99.05311 14785 ft 264 kts 13°
2026-05-04 02:47 19.03534 -99.04854 14481 ft 256 kts 13°
2026-05-04 02:47 19.05233 -99.04409 14206 ft 249 kts 13°
2026-05-04 02:47 19.06902 -99.03975 13994 ft 248 kts 13°
2026-05-04 02:47 19.08558 -99.03545 13956 ft 246 kts 13°
2026-05-04 02:48 19.10208 -99.03117 13850 ft 245 kts 13°
2026-05-04 02:48 19.11850 -99.02690 13898 ft 243 kts 13°
2026-05-04 02:48 19.13488 -99.02265 13915 ft 243 kts 13°
2026-05-04 02:48 19.15123 -99.01853 13933 ft 243 kts
2026-05-04 02:49 19.16780 -99.02017 13789 ft 241 kts 338°
2026-05-04 02:49 19.18187 -99.02888 13414 ft 232 kts 324°
2026-05-04 02:49 19.19452 -99.03891 13023 ft 226 kts 322°
2026-05-04 02:49 19.20682 -99.04870 12627 ft 220 kts 323°
2026-05-04 02:50 19.21886 -99.05826 12234 ft 216 kts 323°
2026-05-04 02:50 19.23062 -99.06800 11846 ft 216 kts 317°
2026-05-04 02:50 19.24068 -99.07953 11566 ft 213 kts 310°
2026-05-04 02:50 19.25046 -99.09139 11326 ft 213 kts 311°
2026-05-04 02:51 19.26019 -99.10313 11078 ft 214 kts 311°
2026-05-04 02:51 19.26961 -99.11480 10828 ft 203 kts 309°
2026-05-04 02:51 19.27831 -99.12612 10597 ft 199 kts 309°
2026-05-04 02:51 19.28701 -99.13741 10351 ft 199 kts 309°
2026-05-04 02:52 19.29584 -99.14865 10097 ft 199 kts 313°
2026-05-04 02:52 19.30765 -99.15517 9789 ft 189 kts 356°
2026-05-04 02:52 19.31986 -99.15321 9676 ft 179 kts 14°
2026-05-04 02:52 19.33186 -99.14981 9548 ft 180 kts 14°
2026-05-04 02:53 19.34395 -99.14644 9361 ft 181 kts 14°
2026-05-04 02:53 19.35606 -99.14306 9157 ft 181 kts 14°
2026-05-04 02:53 19.36815 -99.13970 8947 ft 181 kts 14°
2026-05-04 02:53 19.37999 -99.13639 8699 ft 173 kts 13°
2026-05-04 02:54 19.39153 -99.13290 8525 ft 173 kts 14°
2026-05-04 02:54 19.40314 -99.12917 8335 ft 174 kts 20°
2026-05-04 02:54 19.41195 -99.12095 8138 ft 174 kts 66°
2026-05-04 02:54 19.41374 -99.10861 7951 ft 171 kts 94°
2026-05-04 02:55 19.42473 -99.08786 7540 ft 171 kts 44°
2026-05-04 02:55 19.43153 -99.07786 7339 ft 168 kts 61°
2026-05-04 02:55 19.43684 -99.06835 7330 ft 116 kts 60°
2026-05-04 02:56 19.43932 -99.06383 7330 ft 46 kts 64°
2026-05-04 02:56 19.43966 -99.06185 7330 ft 21 kts 89°
2026-05-04 02:56 19.43947 -99.06097 7330 ft 9 kts 147°
2026-05-04 02:56 19.43896 -99.06118 7330 ft 10 kts 232°
2026-05-04 02:57 19.43859 -99.06179 7330 ft 10 kts 239°
2026-05-04 02:57 19.43817 -99.06254 7330 ft 13 kts 239°
2026-05-04 02:57 19.43767 -99.06342 7330 ft 14 kts 239°
2026-05-04 02:57 19.43717 -99.06431 7330 ft 14 kts 239°
2026-05-04 02:58 19.43669 -99.06518 7330 ft 14 kts 240°
2026-05-04 02:58 19.43617 -99.06614 7330 ft 16 kts 240°
2026-05-04 02:58 19.43542 -99.06703 7330 ft 17 kts 215°
2026-05-04 02:58 19.43446 -99.06773 7330 ft 16 kts 232°
2026-05-04 02:59 19.43392 -99.06880 7330 ft 17 kts 239°
2026-05-04 02:59 19.43332 -99.06984 7330 ft 17 kts 240°
2026-05-04 02:59 19.43275 -99.07092 7330 ft 17 kts 240°
2026-05-04 02:59 19.43256 -99.07183 7330 ft 13 kts 270°
2026-05-04 03:00 19.43238 -99.07278 7330 ft 14 kts 245°
2026-05-04 03:00 19.43187 -99.07370 7330 ft 15 kts 239°
2026-05-04 03:00 19.43131 -99.07469 7330 ft 17 kts 239°
2026-05-04 03:00 19.43069 -99.07578 7330 ft 18 kts 239°
2026-05-04 03:01 19.43003 -99.07694 7330 ft 19 kts 239°
2026-05-04 03:01 19.42911 -99.07801 7330 ft 20 kts 217°
2026-05-04 03:01 19.42787 -99.07862 7330 ft 20 kts 187°
2026-05-04 03:01 19.42665 -99.07825 7330 ft 17 kts 159°
2026-05-04 03:02 19.42570 -99.07842 7330 ft 12 kts 201°
2026-05-04 03:02 19.42516 -99.07859 7330 ft 5 kts 195°
2026-05-04 03:02 19.42506 -99.07862 7330 ft 0 kts 195°